Tracking 30970 objects as of 3-Jul-2025
HD Live streaming from Space Station
objects crossing your sky now

SL-8 R/B

Track SL-8 R/B now!
10-day predictions


NORAD ID: 19910
Int'l Code: 1989-025J
Perigee: 1,480.5 km
Apogee: 1,689.1 km
Inclination: 74.0 °
Period: 117.7 minutes
Semi major axis: 7955 km
RCS: 5.745 m2 (large)
Launch date: March 24, 1989
Source: Commonwealth of Independent States (former USSR) (CIS)
Launch site: PLESETSK MISSILE AND SPACE COMPLEX (PKMTR)

Note: This is a ROCKET BODY
Your satellite tracking list
Your tracking list is empty




NASA's NSSDC Master Catalog

Two Line Element Set (TLE):
1 19910U 89025J   25183.96617918  .00000070  00000-0  75582-3 0  9997
2 19910  74.0032 189.5181 0131148  83.0598 291.7346 12.23426312619893
Source of the keplerian elements: AFSPC